Regional Weather Roundup
Issued by NWS Bismarck, ND

Home | Current Version | Previous Version | Text Only | Print | Product List | Glossary On
Versions: 1 2 3 4 5 6 7 8 9 10 11 12 13 14 15 16 17 18 19 20 21 22 23 24 25 26 27 28 29 30 31 32 33 34 35 36 37 38 39 40 41 42 43 44 45 46 47 48 49 50
000
ASUS43 KBIS 261902
RWRBIS

NWR BROADCAST TEXT
NATIONAL WEATHER SERVICE BISMARCK ND
200 PM CDT FRI AUG 26 2016

NOTE: "FAIR" INDICATES FEW OR NO CLOUDS BELOW 12,000 FEET WITH NO
SIGNIFICANT WEATHER AND/OR OBSTRUCTIONS TO VISIBILITY.


CITY           SKY/WX    TMP DP  RH WIND       PRES   REMARKS
WILLISTON      SUNNY     76  41  28 SW13      29.98F
MINOT          MOSUNNY   74  43  32 S15       29.99F
MINOT AFB      MOSUNNY   75  42  30 VRB6      29.97F
BISMARCK       CLOUDY    71  51  49 S14G24    30.09F
DICKINSON      PTSUNNY   65  44  46 SW21G29   30.03S
GARRISON         N/A     72  48  42 SE8       30.01F
HETTINGER ARPT CLOUDY    71  47  42 S18       30.07F
JAMESTOWN      CLOUDY    67  52  58 SW8       30.09F
CARRINGTON     FAIR      68  54  60 SW9G17    30.10S
HAZEN          MOCLDY    75  43  31 S18       30.03F
OAKES            N/A    N/A N/A N/A MISG        N/A
STANLEY        FAIR      73  41  31 S8G15     30.01F
$$

CITY           SKY/WX    TMP DP  RH WIND       PRES   REMARKS
GRAND FORKS    PTSUNNY   77  52  41 SW13      30.04S
GRAND FORKS AF MOSUNNY   76  51  40 SW10      30.05S
DEVILS LAKE    CLOUDY    71  51  49 SW10      30.06S
FARGO          PTSUNNY   75  49  39 SW13      30.09R
CAVALIER       FAIR      75  48  38 S13G21    30.01S
GRAFTON        FAIR      75  52  43 S16       30.04S
GWINNER        FAIR      72  54  53 SW14      30.13S
LANGDON        FAIR      73  48  40 SW15G21   30.03F
ROLLA            N/A     72  48  43 SW9       30.03S
$$

CITY           SKY/WX    TMP DP  RH WIND       PRES   REMARKS
ABERDEEN       CLOUDY    68  50  52 SW9       30.14F
MOBRIDGE       CLOUDY    63  54  72 SE15      30.09F
RAPID CITY     CLOUDY    61  53  75 S13       30.10F
GLASGOW        PTSUNNY   70  46  42 W8G20     30.00F
SIDNEY         PTSUNNY   73  47  39 S8        29.98F
WOLF POINT     MOSUNNY   73  48  41 SW12G18   30.00F
GLENDIVE       MOSUNNY   74  40  29 SW7       30.01F
MILES CITY     SUNNY     74  36  25 NW9       30.01F
BAKER          SUNNY     70  45  40 S10G16    30.05F
$$

CITY           SKY/WX    TMP DP  RH WIND       PRES   REMARKS
BILLINGS       MOSUNNY   69  38  32 VRB6      30.06F
GREAT FALLS    PTSUNNY   65  43  44 MISG      30.08F
$$




USA.gov is the U.S. government's official web portal to all federal, state and local government web resources and services.